Location: Tel Aviv
(32.0670°N, 34.7670°E)
Time: 04:41:21
(UTC+02:00)

Vanguard 2 Rocket - Visible Passes

Search period start: 23 January 2022 00:00
Search period end: 02 February 2022 00:00
Orbit: 553 x 3325 km, 32.9° (Epoch: 22 January)

Date Brightness Start Highest point End Pass type
(mag) Time Alt. Az. Time Alt. Az. Time Alt. Az.
23 Jan 10.3 01:01:28 32° E 01:01:28 32° E 01:10:29 10° ENE visible
23 Jan 9.2 03:07:14 79° WSW 03:09:05 88° SSE 03:29:35 10° E visible
23 Jan 9.6 05:13:00 22° W 05:28:59 90° N 05:46:55 10° E visible
24 Jan 10.9 00:04:52 14° E 00:04:52 14° E 00:07:03 10° ENE visible
24 Jan 9.5 02:10:38 64° E 02:10:38 64° E 02:27:07 10° ENE visible
24 Jan 9.5 04:16:24 43° W 04:25:54 87° N 04:45:26 10° E visible
25 Jan 10.1 01:14:00 37° E 01:14:00 37° E 01:24:13 10° ENE visible
25 Jan 9.2 03:19:46 72° W 03:22:50 88° N 03:43:23 10° E visible
25 Jan 9.7 05:25:32 18° W 05:42:40 84° SSW 06:00:35 10° ESE visible
26 Jan 10.7 00:17:21 18° E 00:17:21 18° E 00:20:59 10° ENE visible
26 Jan 9.4 02:23:07 72° E 02:23:07 72° E 02:40:50 10° E visible
26 Jan 9.5 04:28:52 37° W 04:39:42 90° N 04:59:12 10° ESE visible
27 Jan 10.0 01:26:27 42° E 01:26:27 42° E 01:37:55 10° ENE visible
27 Jan 9.2 03:32:13 65° W 03:36:39 87° N 03:57:12 10° E visible
27 Jan 9.7 05:37:59 15° WNW 05:56:09 75° SSW 06:14:01 10° ESE visible
28 Jan 10.6 00:29:48 21° ENE 00:29:48 21° ENE 00:34:43 10° ENE visible
28 Jan 9.3 02:35:33 79° ENE 02:35:33 79° ENE 02:54:38 10° E visible
28 Jan 9.6 04:41:19 32° W 04:53:22 84° SSW 05:12:50 10° ESE visible
29 Jan 9.8 01:38:54 47° E 01:38:54 47° E 01:51:38 10° E visible
29 Jan 9.3 03:44:40 58° W 03:50:26 90° SSW 04:10:57 10° ESE visible
29 Jan 9.8 05:50:26 11° WNW 06:09:24 64° SSW 06:27:06 10° SE visible
30 Jan 10.5 00:42:16 25° E 00:42:16 25° E 00:48:23 10° ENE visible
30 Jan 9.2 02:48:02 86° NE 02:48:02 86° NE 03:08:26 10° E visible
30 Jan 9.6 04:53:47 28° W 05:06:50 75° SSW 05:26:11 10° ESE visible
31 Jan 9.7 01:51:25 53° E 01:51:25 53° E 02:05:25 10° E visible
31 Jan 9.3 03:57:11 51° W 04:04:05 83° SSW 04:24:31 10° ESE visible
31 Jan 10.0 06:03:49 10° WNW 06:22:24 52° SW 06:39:44 10° SE visible
01 Feb 10.3 00:54:50 28° E 00:54:50 28° E 01:02:06 10° E visible
01 Feb 9.1 03:00:35 85° W 03:01:23 89° S 03:22:09 10° ESE visible
01 Feb 9.7 05:06:22 23° W 05:20:06 63° SSW 05:39:10 10° SE visible
